User: anonymous   Login
Location: Albany
(35.0000°S, 118.0000°E)
Time: 20:09:45
(UTC-04:00)
Language:

TRMM - Orbit

View from above orbital plane
View from above orbital plane
View from above satellite
View from above satellite

Ground track
Ground track

The orbit data is extracted from the following two-line orbital elements,

1 25063U 97074A   15090.14721229  .00097947  00000-0  54302-3 0  9999
2 25063 034.9523 019.5456 0004503 284.1983 211.1119 15.78236397989644
Epoch (UTC): 31 March 2015 03:31:59
Eccentricity: 0.0004503
inclination: 34.9523°
perigee height: 332 km
apogee height: 338 km
right ascension of ascending node: 19.5456°
argument of perigee: 284.1983°
revolutions per day: 15.78236397
mean anomaly at epoch: 211.1119°
orbit number at epoch: 98964

The dashed part of the orbit path shows where the satellite is in the earth's shadow,  

DLR